Total_Precipitation_Accumulation
1.97 1.89 1.79 1.65 1.63 1.63 1.63 1.73 1.89 1.72 1.32 1.03 0.98 0.99 1.05 1.09 1.24 1.20 1.11 1.29 1.29 1.23 1.23 1.26 1.28 1.29 1.30 1.37 1.54 1.76 1.86 1.90 1.91 1.98 2.06 2.02 1.96 2.00
1.77 1.78 1.72 1.61 1.53 1.52 1.58 1.65 1.74 1.81 1.55 1.06 0.92 0.94 1.02 1.07 1.20 1.08 1.03 1.24 1.23 1.20 1.16 1.12 1.12 1.10 1.11 1.13 1.20 1.36 1.49 1.57 1.67 1.79 1.97 2.13 2.17 2.18
1.71 1.64 1.58 1.55 1.57 1.53 1.53 1.59 1.66 1.74 1.69 1.23 1.00 1.00 1.11 1.15 1.16 1.08 1.02 1.02 1.04 1.19 1.14 1.09 1.04 1.01 1.01 1.03 1.06 1.12 1.20 1.28 1.41 1.59 1.79 1.97 2.06 2.04
1.61 1.59 1.54 1.49 1.48 1.48 1.52 1.55 1.58 1.60 1.63 1.43 1.13 1.03 1.05 1.07 1.08 1.08 1.02 0.97 0.92 1.10 1.10 1.07 1.04 0.99 0.95 0.95 0.98 1.02 1.05 1.10 1.18 1.30 1.45 1.63 1.82 1.92
1.45 1.48 1.47 1.51 1.53 1.48 1.45 1.44 1.40 1.40 1.45 1.43 1.22 1.03 0.98 0.98 1.05 1.05 1.00 0.95 0.88 0.95 1.01 1.06 1.06 1.02 1.01 0.99 1.01 1.01 0.97 0.93 0.96 1.06 1.20 1.37 1.51 1.65
1.33 1.36 1.39 1.42 1.42 1.42 1.45 1.43 1.38 1.36 1.35 1.38 1.29 1.15 1.07 1.04 1.11 1.14 1.11 1.02 0.97 0.89 0.96 0.99 1.07 1.07 1.00 0.93 0.90 0.93 0.94 0.95 1.00 1.07 1.16 1.24 1.33 1.45
1.24 1.25 1.30 1.43 1.48 1.43 1.40 1.39 1.42 1.49 1.49 1.50 1.41 1.24 1.09 1.05 1.06 1.03 1.06 1.06 1.05 1.01 0.99 0.94 0.88 0.85 0.86 0.88 0.89 0.90 0.96 1.02 1.08 1.12 1.17 1.24 1.29 1.37
1.18 1.14 1.15 1.23 1.25 1.31 1.33 1.31 1.38 1.51 1.62 1.62 1.45 1.20 0.98 0.89 0.88 0.96 1.08 1.16 1.12 0.90 0.86 0.91 0.89 0.90 0.83 0.80 0.92 0.92 0.93 0.97 1.00 1.03 1.06 1.12 1.18 1.26
1.12 1.07 1.03 1.01 1.06 0.98 1.07 1.15 1.18 1.29 1.36 1.28 1.20 1.01 0.89 0.87 0.99 1.11 1.09 1.08 0.95 0.82 0.89 1.00 0.97 0.97 0.88 0.88 0.97 0.90 0.91 0.96 0.98 1.01 1.03 1.04 1.08 1.13
0.95 0.88 0.85 0.81 0.82 0.89 0.93 1.01 0.96 0.94 0.95 0.92 0.89 0.85 0.84 0.89 1.05 1.22 1.23 1.23 1.07 0.94 0.93 1.04 0.95 0.93 0.91 0.90 0.97 0.92 0.91 0.95 1.00 1.05 1.05 1.04 1.05 1.09
0.81 0.76 0.75 0.70 0.83 0.97 0.96 0.99 0.85 0.77 0.85 0.94 1.00 1.01 1.09 1.12 1.14 1.32 1.47 1.55 1.38 1.03 0.87 0.93 0.89 0.86 0.90 0.90 0.91 0.94 0.90 0.91 0.95 0.97 0.99 1.00 1.02 1.05
0.74 0.71 0.79 0.76 0.89 0.98 0.90 0.90 0.85 0.73 0.74 0.83 0.89 0.93 0.93 0.99 1.12 1.10 1.27 1.58 1.45 1.15 0.78 0.86 0.93 1.01 1.23 0.96 0.83 0.82 0.83 0.89 0.93 0.97 1.00 1.04 1.08 1.06
0.78 0.72 0.71 0.85 0.93 0.98 0.91 0.80 0.84 0.88 0.88 0.91 0.91 0.89 0.89 0.92 0.94 0.93 1.01 1.38 1.62 1.28 0.76 1.06 1.30 1.12 1.31 1.09 0.86 0.81 0.79 0.81 0.86 0.93 1.00 1.07 1.16 1.27
0.84 0.74 0.74 0.91 0.93 0.91 0.88 0.89 0.97 0.98 0.89 0.97 1.01 0.97 0.90 0.85 0.82 0.84 0.88 0.96 1.11 1.16 0.91 1.22 1.67 1.36 1.50 1.32 0.94 0.85 0.82 0.82 0.89 0.99 1.05 1.19 1.24 1.32
0.82 0.85 0.89 0.92 0.89 0.84 0.87 0.95 0.93 0.87 0.89 0.95 0.95 0.89 0.84 0.83 0.87 0.93 0.97 0.99 1.01 0.95 0.94 1.03 1.31 1.37 1.61 1.60 1.14 0.86 0.90 0.91 0.90 1.04 1.13 1.19 1.21 1.27
0.86 0.85 0.83 0.83 0.86 0.86 0.84 0.84 0.84 0.88 0.97 0.99 0.94 0.90 0.91 0.97 1.01 1.02 1.07 1.08 1.16 1.08 0.96 0.92 1.02 1.33 1.54 1.28 1.26 1.11 0.96 1.08 1.03 1.12 1.21 1.23 1.25 1.28
0.97 0.90 0.83 0.81 0.84 0.83 0.80 0.79 0.82 0.89 0.98 0.98 1.03 1.05 1.04 1.04 1.03 1.02 1.11 1.17 1.23 1.06 0.95 0.92 0.98 1.09 1.23 1.27 1.32 1.12 1.00 1.05 1.15 1.29 1.45 1.49 1.37 1.38
1.07 0.95 0.84 0.79 0.81 0.79 0.80 0.82 0.84 0.88 0.94 1.03 1.11 1.15 1.18 1.16 1.11 1.05 1.10 1.21 1.21 1.04 0.94 0.91 1.04 1.26 1.28 1.20 1.14 1.15 1.13 1.19 1.25 1.34 1.53 1.72 1.54 1.36
1.02 0.86 0.76 0.73 0.74 0.77 0.82 0.86 0.87 0.86 0.96 1.11 1.20 1.25 1.29 1.26 1.22 1.18 1.14 1.17 1.14 1.05 0.98 0.98 1.15 1.54 1.59 1.13 0.89 1.00 1.31 1.39 1.34 1.40 1.51 1.68 1.81 1.56
0.86 0.81 0.79 0.77 0.80 0.85 0.88 0.91 0.94 0.97 1.03 1.09 1.17 1.25 1.36 1.41 1.34 1.24 1.20 1.19 1.20 1.13 1.05 0.98 1.05 1.42 1.84 1.56 1.23 1.02 1.12 1.46 1.68 1.74 1.54 1.40 1.46 1.43
0.77 0.78 0.81 0.86 0.91 0.93 0.96 0.98 1.04 1.08 1.08 1.14 1.16 1.22 1.34 1.47 1.40 1.24 1.24 1.24 1.29 1.28 1.17 0.96 0.89 1.09 1.48 1.72 1.50 1.08 1.10 1.20 1.49 1.92 1.88 1.70 1.47 1.33
0.75 0.82 0.86 0.94 1.02 1.07 1.08 1.09 1.11 1.08 1.11 1.18 1.18 1.20 1.26 1.40 1.43 1.34 1.32 1.33 1.27 1.22 1.16 1.03 1.00 1.13 1.37 1.60 1.35 1.00 1.01 1.03 1.05 1.12 1.46 1.97 2.52 2.60
0.84 0.88 0.91 0.97 1.05 1.11 1.14 1.13 1.12 1.06 1.07 1.19 1.26 1.26 1.30 1.35 1.31 1.37 1.36 1.36 1.36 1.29 1.23 1.19 1.10 1.09 1.13 1.17 1.20 1.07 0.98 0.95 0.92 0.98 1.20 1.30 1.49 1.76